This demonstration page uses our WeatherBlox Daily Observations layout. Learn more.

Left ArrowRight Arrow

44.89941, -97.11507

Hourly Observations for August 25, 2016

Temp ( °F °C ) Dew Point ( °F °C ) Humidity (%) Winds ( mph kmh ) Pressure ( in mb ) Visibility ( mi km ) Precip ( " mm )
12:53 am 00:53 Clear 58 14.4 55 12.8 90 90 W 8 13 30.04 1017 10 16 0.00 0.00
1:53 am 01:53 Clear 60 15.6 55 12.8 84 84 WNW 7 11 30.04 1017 10 16 0.00 0.00
2:53 am 02:53 Clear 61 16.1 54 12.2 78 78 WNW 8 13 30.06 1018 10 16 0.00 0.00
3:53 am 03:53 Clear 59 15 50 10 72 72 NW 9 15 30.06 1018 10 16 0.00 0.00
4:53 am 04:53 Clear 59 15 50 10 72 72 NW 13 20 30.07 1018 10 16 0.00 0.00
5:53 am 05:53 Clear 57 13.9 49 9.4 74 74 WNW 8 13 30.08 1019 10 16 0.00 0.00
6:53 am 06:53 Sunny 55 12.8 49 9.4 80 80 W 10 17 30.09 1019 10 16 0.00 0.00
7:53 am 07:53 Sunny 55 12.8 50 10 83 83 W 10 17 30.10 1019 10 16 0.00 0.00
8:53 am 08:53 Sunny 57 13.9 50 10 78 78 WNW 13 20 30.11 1020 10 16 0.00 0.00
9:53 am 09:53 Mostly Sunny 61 16.1 51 10.6 70 70 WNW 13 20 30.11 1020 10 16 0.00 0.00
10:16 am 10:16 Mostly Cloudy 61 16.1 50 10 67 67 NW 16 26 30.09 1019 10 16 0.00 0.00
10:53 am 10:53 Mostly Cloudy 62 16.7 51 10.6 67 67 WNW 16 26 30.13 1020 10 16 0.00 0.00
11:53 am 11:53 Mostly Cloudy 64 17.8 52 11.1 65 65 W 10 17 30.12 1020 10 16 0.00 0.00
12:43 pm 12:43 Mostly Cloudy 65 18.3 52 11.1 63 63 W 13 20 30.09 1019 10 16 0.00 0.00
12:53 pm 12:53 Mostly Cloudy 65 18.3 51 10.6 61 61 W 14 22 30.13 1020 10 16 0.00 0.00
1:53 pm 13:53 Mostly Cloudy 67 19.4 52 11.1 59 59 W 15 24 30.12 1020 10 16 0.00 0.00
2:53 pm 14:53 Mostly Cloudy 67 19.4 51 10.6 57 57 WNW 12 19 30.12 1020 10 16 0.00 0.00
3:53 pm 15:53 Mostly Cloudy 67 19.4 51 10.6 57 57 NW 12 19 30.12 1020 10 16 0.00 0.00
4:53 pm 16:53 Mostly Sunny 68 20 52 11.1 57 57 NW 16 26 30.12 1020 10 16 0.00 0.00
5:53 pm 17:53 Partly Cloudy 67 19.4 51 10.6 57 57 WNW 10 17 30.13 1020 10 16 0.00 0.00
6:53 pm 18:53 Sunny 67 19.4 49 9.4 53 53 NW 12 19 30.12 1020 10 16 0.00 0.00
7:53 pm 19:53 Sunny 63 17.2 51 10.6 65 65 NNW 9 15 30.13 1020 10 16 0.00 0.00
8:53 pm 20:53 Clear 58 14.4 51 10.6 78 78 Calm 30.14 1021 10 16 0.00 0.00
9:53 pm 21:53 Clear 58 14.4 51 10.6 78 78 Calm 30.14 1021 10 16 0.00 0.00
10:53 pm 22:53 Clear 55 12.8 51 10.6 87 87 Calm 30.16 1021 10 16 0.00 0.00
11:53 pm 23:53 Clear 55 12.8 52 11.1 90 90 S 3 6 30.16 1022 10 16 0.00 0.00

Powered by AerisWeather